Weather in Kolchugino

Russia / Vladimir Oblast     56°17′38″N   39°22′33″E
В апреле 2022 года жителям России запретили посещать сайт meteo.paraplan.net по решению Генеральной прокуратуры. Аудитория сайта уменьшилась в 10 раз. Владельцы сайта не видят смысла в поддержке погодного сервера в таких условиях. Сайт будет закрыт в октябре.
temp.,
°C
wind,
m/s
gust,
m/s
humid.,
%
clouds,
%
prec.,
mm/h
press.,
hPa
HPBL,
m
3 october, mon
mon300:00+9ene41287100 0.0 1003297
03:00+11e41197100 0.1 1001378
06:00+12e51398100 1.1 999497
09:00+14ese61594100 3.6 998940
12:00+14se71685100 1.3 9971102
15:00+13se61391100 1.9 9981213
18:00+9s71478100 0.7 10031402
21:00+9sse61584100 0.8 10051506
4 october, tue
tue400:00+10sse61582100 0.1 10061165
03:00+10sse71480100 0.1 10071171
06:00+9sse6148671 0.0 10081099
09:00+10sse6157899 0.0 10091240
12:00+13sse7156099 0.1 10102100
15:00+13sse71665100 0.4 10102069
18:00+9sw51093100 4.3 10111027
21:00+9s51588100 7.7 10111422
5 october, wed
wed500:00+8s5118573 0.3 10111044
03:00+8s5108798 0.4 1011981
06:00+7s51092100 0.7 10101283
09:00+6ssw3792100 2.3 1011853
12:00+7ssw3591100 0.7 10121049
15:00+6sw3592100 1.1 10131009
18:00+6wsw3690100 0.8 1014760
21:00+5wsw2694100 0.9 1014543
6 october, thu
thu600:00+5wsw3690100 0.1 1015298
03:00+5w379399 0.2 1016602
06:00+4wsw2696100 0.1 1016212
09:00+6wsw369099 0.1 1016268
12:00+8sw4571100 0.0 1016742
15:00+6ssw3791100 0.1 1015341
18:00+6s3796100 0.1 1014319
21:00+8sw31198100 0.6 1013443
7 october, fri
fri700:00+9wsw41297100 0.0 1012569
03:00+11wnw5118893 0.6 1012833
06:00+9wnw51288100 0.0 1014866
09:00+9w41084100 0.2 10151022
12:00+9wsw51282100 0.1 1016940
15:00+12w6127420 0.1 10161372
18:00+10w613785 0.0 1017987
21:00+9w5138362 0.0 1019721